Regional Weather Roundup
Issued by NWS

Home | Current Version | Previous Version | Graphics & Text | Print | Product List | Glossary On
Versions: 1 2 3 4 5 6 7 8 9 10 11 12 13 14 15 16 17 18 19 20 21 22 23 24 25 26 27 28 29 30 31 32 33 34 35 36 37 38 39 40 41 42 43 44 45 46 47 48 49 50
000
ASUS44 KMEG 222300
RWRTN
TENNESSEE HOURLY STATE WEATHER ROUNDUP
NATIONAL WEATHER SERVICE MEMPHIS TN
600 PM CDT FRI AUG 22 2014

TNZ002-004-019-021-049-052-054-088>092-230000-
WEST TENNESSEE

CITY           SKY/WX    TMP DP  RH WIND       PRES   REMARKS
MEMPHIS INTL   MOSUNNY   93  73  52 SW7G18    29.99F HX 102
NWS MEMPHIS      N/A     94 N/A N/A MISG        N/A
JACKSON        MOSUNNY   91  74  57 SW5       29.99F HX 100
DYERSBURG      MOSUNNY   91  70  49 SW6       29.98S HX  97
UNION CITY     SUNNY     90  77  66 SW7       29.97S HX 102
PARIS          SUNNY     86  73  66 SW7       29.99F HX  93
SAVANNAH       SUNNY     91  73  55 SW5       30.01S HX 100
$$

TNZ008-025-027-028-033-062-065-066-230000-
NORTH MIDDLE TENNESSEE

CITY           SKY/WX    TMP DP  RH WIND       PRES   REMARKS
NASHVILLE      PTSUNNY   90  73  57 W6        29.99F HX  98
CLARKSVILLE    PTSUNNY   89  75  63 SW6       29.97F HX  99
COOKEVILLE     SUNNY     90  75  62 CALM      30.03S HX 100
CROSSVILLE     SUNNY     83  70  64 SW5       30.09F
$$

TNZ061-075-076-078-094-096-097-230000-
SOUTH MIDDLE TENNESSEE

CITY           SKY/WX    TMP DP  RH WIND       PRES   REMARKS
SHELBYVILLE    SUNNY     91  73  55 W6        30.02F HX 100
$$

TNZ017-018-042-046-047-230000-
NORTHEAST TENNESSEE

CITY           SKY/WX    TMP DP  RH WIND       PRES   REMARKS
TRI CITIES     CLOUDY    83  70  64 W3        30.02F
ELIZABETHTON   PTCLDY    79  73  83 CALM      30.03S
$$

TNZ012-013-036-069-073-074-230000-
CENTRAL EAST TENNESSEE

CITY           SKY/WX    TMP DP  RH WIND       PRES   REMARKS
KNOXVILLE      MOSUNNY   87  69  54 SW12      30.00F HX  91
OAK RIDGE      MOSUNNY   89  70  53 VRB3      30.02F HX  94
GATLINBURG     CLEAR     90  70  51 W6        30.00F HX  95
$$

TNZ083-085-099-230000-
SOUTHEAST TENNESSEE

CITY           SKY/WX    TMP DP  RH WIND       PRES   REMARKS
CHATTANOOGA    MOSUNNY   92  68  45 W6        30.01F HX  96
$$

SKY/WX REPORTED AS FAIR MEANS FEW OR NO CLOUDS BELOW
12 THOUSAND FEET.



USA.gov is the U.S. government's official web portal to all federal, state and local government web resources and services.